Address 0x0e80bc7a30f96b359952bbccbc179f2585f38a6b

Overview

Balance:
0.00032149937 MATIC
My Name Tag:
Not Available

Txn Hash Method
Block
From
To
Value [Txn Fee]
0xcf0fae8c374602fa7625919f50283348cc6e47042554c435ae9b2c82f7ec9f63Transfer263427842022-05-17 2:21:41199 days 17 hrs ago0x0e80bc7a30f96b359952bbccbc179f2585f38a6bOUT0x87f70751d283d4d4b7cc16586e2e3afcf528ca7b4.849322 MATIC0.000178500428.50002
0x8f843b3be5d115c803784f9eee7cc2a30e78124c078d4353dcb5424d7336d28aTransfer262796642022-05-10 23:28:02205 days 20 hrs ago0x0e80bc7a30f96b359952bbccbc179f2585f38a6bOUT0x87f70751d283d4d4b7cc16586e2e3afcf528ca7b9.999821 MATIC0.00017858.5
0x90e9c8f0dce8f8cf2af0fbb0b34d27803a2439684beb1721177bb0ec2ebfa978Transfer262305372022-05-06 17:48:16210 days 1 hr ago0x0e80bc7a30f96b359952bbccbc179f2585f38a6bOUT0x87f70751d283d4d4b7cc16586e2e3afcf528ca7b10.05 MATIC0.000178500218.50001
[ Download CSV Export 
Latest 25 internal transaction
Parent Txn Hash Block From To Value
0xa7d47a87e00c11f257f2f07082fc448990872a3b76ff230b92d5b021410b3cd0263039732022-05-13 7:22:03203 days 12 hrs ago 0x7f092e65c688a509737fcd8d0998dd12208f52970x0e80bc7a30f96b359952bbccbc179f2585f38a6b0.2 MATIC
0x1e8d75ec01a715428d8a3e9daf5da5c16c2a2f8557256b50da7d41135e91080c262921552022-05-12 4:36:47204 days 15 hrs ago 0x7f092e65c688a509737fcd8d0998dd12208f52970x0e80bc7a30f96b359952bbccbc179f2585f38a6b0.2 MATIC
0x16b9e19751ad2c1ef8fb725a255216b63938b0f6220d114e21f8a3c45b03f18e262912482022-05-12 2:21:43204 days 17 hrs ago 0x7f092e65c688a509737fcd8d0998dd12208f52970x0e80bc7a30f96b359952bbccbc179f2585f38a6b0.2 MATIC
0x12c5c5c3ee76df044471bb9a8e28da34d23b4f67c6f2f6657e777a669c3c5c79262900162022-05-11 23:38:44204 days 19 hrs ago 0x7f092e65c688a509737fcd8d0998dd12208f52970x0e80bc7a30f96b359952bbccbc179f2585f38a6b0.2 MATIC
0xc01d56b56a04dd996a32b826f7d89d37b600803bc7c2e6e4aaf3dd2b4ad19377262896532022-05-11 22:54:08204 days 20 hrs ago 0x7f092e65c688a509737fcd8d0998dd12208f52970x0e80bc7a30f96b359952bbccbc179f2585f38a6b0.2 MATIC
0x80713ed59a9cbb268870ab6ffa59ce8d78cf0a538b6c2e998d6264882331d4e5262892972022-05-11 22:05:23204 days 21 hrs ago 0x7f092e65c688a509737fcd8d0998dd12208f52970x0e80bc7a30f96b359952bbccbc179f2585f38a6b0.2 MATIC
0x4e0e6fe5e87137f61f3209547908c6c3915448f8ee37050cfa3481a7e3721d47262889072022-05-11 21:16:17204 days 22 hrs ago 0x7f092e65c688a509737fcd8d0998dd12208f52970x0e80bc7a30f96b359952bbccbc179f2585f38a6b0.2 MATIC
0x47604f826b4f80dc52834c27fda46c8cb47b4dcc89eb12842b1933248f1ab5b7262884012022-05-11 20:13:09204 days 23 hrs ago 0x7f092e65c688a509737fcd8d0998dd12208f52970x0e80bc7a30f96b359952bbccbc179f2585f38a6b0.2 MATIC
0x369a32ad13e15a91940a93f419fe16562f2653513d5e14f5409fcff8ce79244d262879032022-05-11 19:06:01205 days 31 mins ago 0x7f092e65c688a509737fcd8d0998dd12208f52970x0e80bc7a30f96b359952bbccbc179f2585f38a6b0.2 MATIC
0xe06fa93414d3841c49b529fa44327f141d24f27e41f51ed4eaf296f40b9b8bfb262873032022-05-11 17:47:12205 days 1 hr ago 0x7f092e65c688a509737fcd8d0998dd12208f52970x0e80bc7a30f96b359952bbccbc179f2585f38a6b0.2 MATIC
0x2eee94b6d364feb8aebe279833bd99e63736207dd83036ddfb62b69542d72f20262866792022-05-11 16:29:42205 days 3 hrs ago 0x7f092e65c688a509737fcd8d0998dd12208f52970x0e80bc7a30f96b359952bbccbc179f2585f38a6b0.2 MATIC
0x47dfdedb37e9659a9f35f506fa4ae251244dab2af075d2eb7b3207576daf260b262860022022-05-11 15:03:21205 days 4 hrs ago 0x7f092e65c688a509737fcd8d0998dd12208f52970x0e80bc7a30f96b359952bbccbc179f2585f38a6b0.2 MATIC
0x743060118343d53f6404f7c04e03690697d815bd47e6c8cff94d3c97b7dcd098262852322022-05-11 13:21:29205 days 6 hrs ago 0x7f092e65c688a509737fcd8d0998dd12208f52970x0e80bc7a30f96b359952bbccbc179f2585f38a6b0.2 MATIC
0xcaed90f14e3314d25eeb41587e371cba7617e619cc2ad6b97c1414601cc1be17262845892022-05-11 11:55:29205 days 7 hrs ago 0x7f092e65c688a509737fcd8d0998dd12208f52970x0e80bc7a30f96b359952bbccbc179f2585f38a6b0.2 MATIC
0x7d79e62ede4e30edd1aab97a8ab8bf1044ec554f5cabcfb7063aea77efaaab69262837672022-05-11 9:48:16205 days 9 hrs ago 0x7f092e65c688a509737fcd8d0998dd12208f52970x0e80bc7a30f96b359952bbccbc179f2585f38a6b0.2 MATIC
0x2b85ca2db4d89e02f16b4e642e69610e3c411afc91f58c5b5a47ad1756e99a97262833922022-05-11 8:46:26205 days 10 hrs ago 0x7f092e65c688a509737fcd8d0998dd12208f52970x0e80bc7a30f96b359952bbccbc179f2585f38a6b0.2 MATIC
0x32da0d7095b124727e3d7a7f3ef09e63be0d74101df567d42e604263d2fb40a6262830522022-05-11 7:58:40205 days 11 hrs ago 0x7f092e65c688a509737fcd8d0998dd12208f52970x0e80bc7a30f96b359952bbccbc179f2585f38a6b0.2 MATIC
0x6e75cb2b670777894ecb22776d4b43a01a3a65303c872b06d373019a426feaf8262823322022-05-11 6:07:49205 days 13 hrs ago 0x7f092e65c688a509737fcd8d0998dd12208f52970x0e80bc7a30f96b359952bbccbc179f2585f38a6b0.2 MATIC
0x55bd2c40e563787d6dbe3e5a6c8f50ff0dfb075f473219c2410ecf8e093e185c262819342022-05-11 5:04:18205 days 14 hrs ago 0x7f092e65c688a509737fcd8d0998dd12208f52970x0e80bc7a30f96b359952bbccbc179f2585f38a6b0.2 MATIC
0xd04a47e67182b4ee8026868b420a2b3dd927a532b29d44a5a698ac246db7d78c262815442022-05-11 4:09:07205 days 15 hrs ago 0x7f092e65c688a509737fcd8d0998dd12208f52970x0e80bc7a30f96b359952bbccbc179f2585f38a6b0.2 MATIC
0x7ea99da88e40887dae21dab115817650719ad239adeba47eb9d3610b468f9ea5262810492022-05-11 2:57:54205 days 16 hrs ago 0x7f092e65c688a509737fcd8d0998dd12208f52970x0e80bc7a30f96b359952bbccbc179f2585f38a6b0.2 MATIC
0x77400ffce615eb57afbbc8f49ebc3a83d31b716789226c503af17794bb3aa711262806162022-05-11 1:49:02205 days 17 hrs ago 0x7f092e65c688a509737fcd8d0998dd12208f52970x0e80bc7a30f96b359952bbccbc179f2585f38a6b0.2 MATIC
0xd20e952449f766ddd2845db15c23f24ddfee92448374c72f795f383ae00dc0df262802682022-05-11 0:58:12205 days 18 hrs ago 0x7f092e65c688a509737fcd8d0998dd12208f52970x0e80bc7a30f96b359952bbccbc179f2585f38a6b0.2 MATIC
0x34971eb2a4d1deab46f4e7470c0da676f0dbd0e24b038915508cdb00b1ce6966262799322022-05-11 0:07:11205 days 19 hrs ago 0x7f092e65c688a509737fcd8d0998dd12208f52970x0e80bc7a30f96b359952bbccbc179f2585f38a6b0.2 MATIC
0x8f4b2608d4b256d6a10486f613943dca2f141bf5d3d9bda4c6e925d1610f59db262793112022-05-10 22:33:07205 days 21 hrs ago 0x7f092e65c688a509737fcd8d0998dd12208f52970x0e80bc7a30f96b359952bbccbc179f2585f38a6b0.2 MATIC
[ Download CSV Export 
Loading

Contract Name:
0 MATIC

Compiler Version
0

Optimization Enabled:
0 MATIC

Other Settings:
-NA-
Block Transaction Gas Used Reward
Age Block Fee Address BC Fee Address Voting Power Jailed Incoming
Block Uncle Number Difficulty Gas Used Reward
Loading